O3b mPOWER F9

operational
NORAD ID: 64866 Int'l Des: 2025-153 Owner: O3BS Country: UK
MEOELLIPTICAL

About O3b mPOWER F9

Description loading...

Live Position

Loading 3D Globe...

Upcoming Passes

Altitude History

Altitude vs Time

uPlot chart will show altitude changes over time

Two-Line Element Set

1 64866U 25153A 25281.47605597 -.00000005 00000-0 00000-0 0 9993
2 64866 3.2383 359.8473 0761196 355.0351 4.2328 5.89130413 5392
Epoch: Oct 8, 2025 • Age: 836 hours

Current Status

Altitude 6847.4 km
Velocity 5.43 km/s
Sub-Earth Point 0.89°N, 31.85°W
Launch Date Jul 22, 2025
Age 0.3 years
Type other

Technical Details

Classification Payload
Mass 1700.00 kg
Dry Mass 1700.00 kg
Total Mass 1700.00 kg
Length 1.20 m
Diameter 3.00 m
Span 27.00 m
Shape Box + 2 pan
Manufacturer BOES
Bus Type 702X
Phase Status In Orbit
Owner/State O3BS/UK

Large Constellations

Loading constellations...